Location: Unspecified
(60.1756°N, 0.0000°E)
Time: 03:28:04
(UTC+00:00)

Cosmos 1141 Rocket - Visible Passes

Search period start: 04 April 2026 00:00
Search period end: 14 April 2026 00:00
Orbit: 947 x 986 km, 82.9° (Epoch: 29 March)

Date Brightness Start Highest point End Pass type
(mag) Time Alt. Az. Time Alt. Az. Time Alt. Az.
4 Apr 5.7 01:41:16 38° SW 01:43:36 61° WNW 01:49:49 10° N visible
4 Apr 7.1 03:25:43 11° W 03:30:10 21° NW 03:34:47 10° N visible
4 Apr 7.4 22:34:45 13° E 22:37:05 16° ENE 22:40:34 10° NE visible
5 Apr 5.8 00:19:12 42° SE 00:21:01 56° E 00:27:06 10° NNE visible
5 Apr 6.1 02:03:39 28° WSW 02:06:27 44° WNW 02:12:25 10° N visible
5 Apr 7.4 03:49:42 10° WNW 03:53:28 16° NW 03:57:14 10° N visible
5 Apr 7.0 22:57:08 19° ESE 22:59:12 23° ENE 23:03:52 10° NNE visible
6 Apr 5.5 00:41:35 47° S 00:43:33 80° E 00:49:50 10° NNE visible
6 Apr 6.6 02:26:03 20° WSW 02:29:27 32° WNW 02:35:00 10° N visible
6 Apr 7.6 04:14:12 10° NW 04:16:54 13° NNW 04:19:35 10° N visible
6 Apr 6.6 23:19:31 27° ESE 23:21:27 32° E 23:26:52 10° NNE visible
7 Apr 5.5 01:03:58 42° SSW 01:06:14 74° WNW 01:12:30 10° NNE visible
7 Apr 7.0 02:48:25 13° W 02:52:34 24° NW 02:57:33 10° N visible
7 Apr 7.5 21:57:42 10° E 22:00:08 12° ENE 22:02:34 10° NE visible
7 Apr 6.1 23:41:53 35° SE 23:43:50 46° E 23:49:44 10° NNE visible
8 Apr 5.9 01:26:20 32° SW 01:29:01 53° WNW 01:35:09 10° N visible
8 Apr 7.3 03:11:33 10° W 03:15:48 19° NW 03:20:02 10° N visible
8 Apr 7.2 22:19:47 15° E 22:22:12 18° ENE 22:26:15 10° NNE visible
9 Apr 5.6 00:04:14 42° SSE 00:06:18 66° E 00:12:29 10° NNE visible
9 Apr 6.4 01:48:41 23° WSW 01:51:57 38° WNW 01:57:44 10° N visible
9 Apr 7.6 03:35:51 10° WNW 03:39:09 14° NW 03:42:27 10° N visible
9 Apr 6.8 22:42:08 21° ESE 22:44:23 26° E 22:49:23 10° NNE visible
10 Apr 5.4 00:26:35 42° SSW 00:28:55 88° WNW 00:35:12 10° NNE visible
10 Apr 6.8 02:11:02 16° WSW 02:15:00 28° NW 02:20:18 10° N visible
10 Apr 7.7 04:00:33 10° NW 04:02:37 12° NNW 04:04:41 10° N visible
10 Apr 6.3 23:04:28 29° SE 23:06:41 37° E 23:12:19 10° NNE visible
11 Apr 5.7 00:48:55 34° SW 00:51:39 64° WNW 00:57:51 10° N visible
11 Apr 7.2 02:33:29 10° W 02:38:09 21° NW 02:42:49 10° N visible
11 Apr 7.4 21:42:21 11° E 21:45:13 15° ENE 21:48:28 10° NE visible
11 Apr 5.8 23:26:48 36° SSE 23:29:05 54° E 23:35:08 10° NNE visible
12 Apr 6.2 01:11:15 26° WSW 01:14:29 45° WNW 01:20:28 10° N visible
12 Apr 7.5 02:57:36 10° WNW 03:01:26 17° NW 03:05:16 10° N visible
12 Apr 7.0 22:04:40 16° ESE 22:07:20 21° ENE 22:11:50 10° NNE visible
12 Apr 5.5 23:49:07 39° S 23:51:38 77° E 23:57:51 10° NNE visible
13 Apr 6.6 01:33:34 18° WSW 01:37:28 33° WNW 01:43:02 10° N visible
13 Apr 7.7 03:22:04 10° WNW 03:24:51 13° NNW 03:27:37 10° N visible
13 Apr 6.6 22:26:58 22° ESE 22:29:34 30° E 22:34:52 10° NNE visible
